{"data":{"norad_id":67329,"epoch":"2026-09-19T04:44:26.100384Z","epoch_age_seconds":187990,"freshness":"STALE","line1":"1 67329U 26002AA  26262.19752431  .00011188  00000+0  41529-3 0  9999","line2":"2 67329  42.9978 312.4075 0001301 185.9855 174.0982 15.27593564 40659","mean_motion":15.27593564,"eccentricity":0.0001301,"inclination_deg":42.9978,"raan_deg":312.4075,"arg_perigee_deg":185.9855,"mean_anomaly_deg":174.0982,"bstar":0.00041529,"rev_number":4065,"period_min":94.265911688536,"perigee_km":482.1158458175,"apogee_km":483.90111587162,"semimajor_km":6861.1454808446,"source":"CELESTRAK","updated_at":"2026-09-20T09:00:43.508840Z"}}